星链-30092 (STARLINK-30092 )

导读

STARLINK-30092是美国太空探索技术公司(SpaceX)星链(Starlink)项目下的卫星,于北京时间2023年7月28日发射入轨,属于星链星座组网卫星。星链项目旨在构建全球卫星互联网星座,该卫星承担着为全球尤其是偏远地区提供宽带互联网接入服务的任务,依托低轨部署,能降低通信延迟,提升覆盖能力。

基本信息
目录编号:
57467
目录名称:
STARLINK-30092
国际标识:
2023-107L
轨道中心:
EARTH
卫星名称:
星链-30092
卫星全名:
星链-30092 (STARLINK-30092 )
卫星状态:
在轨 (已飞行1056 天)
发射日期:
2023-07-28 UTC
国别 :
美国 (US)
星等 :
--
轨道信息
数据来源 国际轨道数据 AOE轨道数据
星历时间 2026-06-18T13:52:37+0800
8小时前
查看轨道信息
2026-06-13T01:00:00+0800
5天前
查看轨道信息
半长轴 6861.196km 6861.231km
偏心率 0.0001261 0.000147
轨道倾角 43.001° 42.998°
近地点辐角 271.675° 225.749°
升交点赤经 128.397° 159.666°
平近点角 88.395° 251.538°
近地点 482.193km 482.085km
远地点 483.925km 484.103km
周期 94.267分钟 94.268分钟
每日圈数 15.275768 15.275651
详细信息
固有亮度:
5
最大亮度:
0.3
卫星平台:
Starlink v2.0 mini
覆盖范围:
全球
运营商:
太空探索技术公司
运营商所在国:
美国
制造商(研发单位):
太空探索技术公司
制造商所在国:
美国
使用方式:
暂无
卫星简介
星链(Starlink)计划是由太空探索技术公司(SpaceX)提出的一个巨型低轨卫星互联网星座项目,计划在2019年至2024年间在太空搭建由约1.2万颗卫星组成的“星链”网络,其中1584颗将部署在地球上空550千米处的近地轨道,并从2020年开始工作。该卫星仍在工作。
2D轨道图
3D轨道图
轨道高度分析图
轨道倾角分析图
轨道综合分析图
查看轨道综合分析图